map of XPR home
XPR - Airport
Location
City:  Pine Ridge, South Dakota, United States
ICAO:KIEN
IATA:XPR
FAA LID:IEN

Details
Type:Airport (Airfield)
Use:Public/Civil
Latitude:4301'17"N (43.021274)
Longitude:10230'24"W (-102.506605)
Datum:WGS 1984
Elevation:3332 ft (1016 m)
Variation:7.04E (WMM2015 magnetic declination)
-0.10 annual change
Runways:1
Longest:5000 × 75 ft (1524 × 23 m), paved

Time
Time Zone:UTC-6 (DST-5)
Local Time:

Weather
METAR:KIEN 210952Z AUTO 33007KT 10SM FEW060 BKN085 OVC110 12/05 A2957 RMK AO2 RAE29 SLP986 P0000 T01170050

Related Locations
Nearby:
Farthest:RRG: 10631 mi / 17110 km
Plaine Corail [Sir Gatan Duval Airport (Plaine Corail Airport)], Rodrigues Island, MU

Find:

   beyond  
but within

Other Information
Maps:
NOTAMs:
Links:
Sources:

  
flag of United States
flag of South Dakota
  

Sectional Chart

Flight Planning
at skyvector.com

Satellite Image

Google Maps Satellite view

 

Copyright © 2004-2017 Karl L. Swartz. All rights reserved.
The Great Circle Mapper name and logo are trademarks of the Great Circle Mapper.
All other trademarks mentioned herein belong to their respective owners.
Please see credits for attibutions and further copyright information.

  Follow gcmap on Facebook Follow gcmap on Twitter Follow gcmap on Google+ GCmap on LinkedIn

hCard Microformat

Geo Microformat